User: anonymous   Login
Location: Albany
(35.0000°S, 118.0000°E)
Time: 21:05:57
(UTC-04:00)
Language:

Transit 2A - Orbit

View from above orbital plane
View from above orbital plane
View from above satellite
View from above satellite

Ground track
Ground track

The orbit data is extracted from the following two-line orbital elements,

1 00045U 60007A   16150.04165359 -.00000029  00000-0  19920-4 0  9995
2 00045  66.6946 321.6821 0261655 312.0204  45.8881 14.33488825910503
Epoch (UTC): 29 May 2016 00:59:58
Eccentricity: 0.0261655
inclination: 66.6946°
perigee height: 593 km
apogee height: 967 km
right ascension of ascending node: 321.6821°
argument of perigee: 312.0204°
revolutions per day: 14.33488825
mean anomaly at epoch: 45.8881°
orbit number at epoch: 91050

The dashed part of the orbit path shows where the satellite is in the earth's shadow,  

DLR